Ladysmith, WI

10:13 AM CST on December 13, 2019 (GMT -0600)
Rusk County

Weather History for KRCX - July, 2019

Change the Weather History Date:

Sunday, July 14, 2019

  Actual Average (KPBH) Record (KPBH)
Temperature  
Mean Temperature 72 °F -  
Max Temperature 87 °F 76 °F 89 °F (1998)
Min Temperature 58 °F 55 °F 44 °F (2008)
Cooling Degree Days 8    
Growing Degree Days 22 (Base 50)    
Moisture  
Dew Point 61 °F    
Average Humidity 64    
Maximum Humidity 80    
Minimum Humidity 51    
Precipitation  
Precipitation 0.00 in - - ()
Sea Level Pressure  
Sea Level Pressure 30.10 in    
Wind  
Wind Speed 6 mph (SSE)    
Max Wind Speed 10 mph    
Max Gust Speed -    
Visibility 10 miles    
Events Thunderstorm    
Averages and records for this station are not official NWS values.
T = Trace of Precipitation, MM = Missing Value Source: NWS Daily Summary

Daily Weather History Graph

Daily Weather History Graph

Search for Another Location

Airport or City:

Astronomy

Jul. 14, 2019 Rise Set
Actual Time 5:28 AM CDT 8:50 PM CDT
Civil Twilight 4:52 AM CDT 9:26 PM CDT
Nautical Twilight 4:04 AM CDT 10:14 PM CDT
Astronomical Twilight 3:03 AM CDT 11:14 PM CDT
Moon 7:13 PM CDT (7/14) 3:30 AM CDT (7/14)
Length of Visible Light 16h 34m
Length of Day
15h 21m
Waxing Gibbous, 95% of the Moon is Illuminated
Jul 14
Waxing Gibbous
Jul 16
Full
Jul 24
Last Quarter
Jul 31
New
Aug 7
First Quarter

Hourly Weather History & Observations

Time (CDT) Temp. Heat Index Dew Point Humidity Pressure Visibility Wind Dir Wind Speed Gust Speed Precip Events Conditions
12:15 AM 64.8 °F - 54.3 °F 69% 30.12 in 10.0 mi East 5.8 mph - N/A   Clear
12:35 AM 64.6 °F - 53.8 °F 68% 30.12 in 10.0 mi East 6.9 mph - N/A   Clear
12:55 AM 63.3 °F - 53.6 °F 71% 30.12 in 10.0 mi ESE 5.8 mph - N/A   Clear
1:15 AM 62.8 °F - 53.4 °F 71% 30.12 in 10.0 mi East 5.8 mph - N/A   Clear
1:35 AM 62.6 °F - 53.1 °F 71% 30.12 in 10.0 mi East 6.9 mph - N/A   Clear
1:55 AM 62.8 °F - 52.7 °F 70% 30.12 in 10.0 mi East 6.9 mph - N/A   Clear
2:15 AM 62.1 °F - 52.7 °F 71% 30.13 in 10.0 mi East 6.9 mph - N/A   Clear
2:35 AM 61.5 °F - 52.7 °F 73% 30.13 in 10.0 mi ESE 5.8 mph - N/A   Clear
2:55 AM 61.0 °F - 52.9 °F 75% 30.13 in 10.0 mi East 4.6 mph - N/A   Clear
3:15 AM 60.3 °F - 52.7 °F 76% 30.13 in 10.0 mi Calm Calm - N/A   Clear
3:35 AM 59.7 °F - 52.9 °F 78% 30.14 in 10.0 mi East 3.5 mph - N/A   Clear
3:55 AM 60.4 °F - 52.7 °F 76% 30.14 in 10.0 mi ESE 4.6 mph - N/A   Clear
4:15 AM 59.9 °F - 52.2 °F 76% 30.14 in 10.0 mi ESE 4.6 mph - N/A   Clear
4:35 AM 59.9 °F - 52.0 °F 75% 30.15 in 10.0 mi ESE 4.6 mph - N/A   Clear
4:55 AM 59.0 °F - 52.0 °F 78% 30.15 in 10.0 mi ESE 3.5 mph - N/A   Clear
5:15 AM 59.0 °F - 52.0 °F 78% 30.15 in 10.0 mi East 3.5 mph - N/A   Clear
5:35 AM 58.5 °F - 52.2 °F 80% 30.15 in 10.0 mi ESE 3.5 mph - N/A   Clear
5:55 AM 58.3 °F - 52.0 °F 80% 30.15 in 10.0 mi East 3.5 mph - N/A   Clear
6:15 AM 58.6 °F - 52.2 °F 79% 30.16 in 10.0 mi Calm Calm - N/A   Clear
6:35 AM 59.5 °F - 52.2 °F 77% 30.16 in 10.0 mi East 3.5 mph - N/A   Clear
6:55 AM 60.8 °F - 52.9 °F 75% 30.15 in 10.0 mi East 5.8 mph - N/A   Clear
7:15 AM 61.5 °F - 53.8 °F 76% 30.16 in 10.0 mi ESE 4.6 mph - N/A   Clear
7:35 AM 64.0 °F - 54.5 °F 71% 30.15 in 10.0 mi SE 4.6 mph - N/A   Clear
7:55 AM 66.4 °F - 55.4 °F 68% 30.16 in 10.0 mi ESE 4.6 mph - N/A   Clear
8:15 AM 68.2 °F - 56.7 °F 67% 30.15 in 10.0 mi SE 6.9 mph - N/A   Clear
8:35 AM 69.8 °F - 57.7 °F 65% 30.15 in 10.0 mi SE 4.6 mph - N/A   Clear
8:55 AM 71.6 °F - 59.0 °F 64% 30.15 in 10.0 mi SSE 4.6 mph - N/A   Clear
9:15 AM 73.2 °F - 59.7 °F 63% 30.15 in 10.0 mi South 4.6 mph - N/A   Clear
9:35 AM 75.2 °F - 60.1 °F 59% 30.15 in 10.0 mi SSE 4.6 mph - N/A   Clear
9:55 AM 76.8 °F - 59.4 °F 55% 30.15 in 10.0 mi SSE 6.9 mph - N/A   Clear
10:15 AM 77.7 °F - 60.3 °F 55% 30.16 in 10.0 mi South 5.8 mph - N/A   Clear
10:35 AM 78.1 °F - 61.0 °F 56% 30.15 in 10.0 mi SSE 5.8 mph - N/A   Clear
10:55 AM 78.8 °F - 61.5 °F 55% 30.14 in 10.0 mi South 4.6 mph - N/A   Clear
11:15 AM 79.9 °F - 61.9 °F 54% 30.14 in 10.0 mi SE 6.9 mph - N/A   Clear
11:35 AM 80.6 °F 81.7 °F 62.2 °F 53% 30.13 in 10.0 mi South 9.2 mph - N/A   Clear
11:55 AM 81.5 °F 82.5 °F 62.4 °F 52% 30.13 in 10.0 mi South 8.1 mph - N/A   Clear
12:15 PM 81.5 °F 82.7 °F 62.6 °F 53% 30.13 in 10.0 mi South 9.2 mph - N/A   Clear
12:35 PM 82.4 °F 83.4 °F 62.8 °F 51% 30.12 in 10.0 mi South 8.1 mph - N/A   Clear
12:55 PM 82.6 °F 83.6 °F 63.0 °F 51% 30.12 in 10.0 mi SSW 8.1 mph - N/A   Clear
1:15 PM 83.5 °F 84.9 °F 64.4 °F 52% 30.12 in 10.0 mi South 5.8 mph - N/A   Scattered Clouds
1:35 PM 83.8 °F 85.1 °F 63.7 °F 51% 30.12 in 10.0 mi SSE 5.8 mph - N/A   Scattered Clouds
1:55 PM 84.4 °F 86.1 °F 64.8 °F 52% 30.10 in 10.0 mi SSW 3.5 mph - N/A   Clear
2:15 PM 84.7 °F 86.8 °F 65.7 °F 53% 30.09 in 10.0 mi South 9.2 mph - N/A   Clear
2:35 PM 85.1 °F 87.1 °F 65.8 °F 52% 30.09 in 10.0 mi SSW 8.1 mph - N/A   Clear
2:55 PM 84.7 °F 86.8 °F 66.0 °F 53% 30.08 in 10.0 mi SE 6.9 mph - N/A   Scattered Clouds
3:15 PM 83.7 °F 86.2 °F 66.7 °F 57% 30.08 in 10.0 mi South 6.9 mph - N/A   Mostly Cloudy
3:35 PM 85.8 °F 88.5 °F 66.7 °F 53% 30.08 in 10.0 mi South 9.2 mph - N/A   Scattered Clouds
3:55 PM 87.1 °F 90.2 °F 67.6 °F 52% 30.08 in 10.0 mi SSW 9.2 mph - N/A   Mostly Cloudy
4:15 PM 86.9 °F 89.9 °F 67.1 °F 52% 30.07 in 10.0 mi SSW 8.1 mph - N/A   Mostly Cloudy
4:35 PM 86.4 °F 89.0 °F 67.1 °F 52% 30.06 in 10.0 mi South 10.4 mph - N/A   Scattered Clouds
4:55 PM 85.1 °F 88.2 °F 68.0 °F 56% 30.05 in 10.0 mi South 9.2 mph - N/A   Mostly Cloudy
5:15 PM 86.7 °F 89.9 °F 67.6 °F 53% 30.05 in 10.0 mi South 6.9 mph - N/A   Scattered Clouds
5:35 PM 86.4 °F 89.4 °F 67.5 °F 53% 30.03 in 10.0 mi South 6.9 mph - N/A   Scattered Clouds
5:55 PM 86.0 °F 89.4 °F 68.0 °F 55% 30.02 in 10.0 mi South 10.4 mph - N/A   Scattered Clouds
6:15 PM 84.4 °F 87.6 °F 68.0 °F 58% 30.02 in 10.0 mi SSE 5.8 mph - N/A   Scattered Clouds
6:35 PM 84.2 °F 87.1 °F 67.5 °F 57% 30.02 in 10.0 mi South 6.9 mph - N/A   Scattered Clouds
6:55 PM 85.5 °F 88.8 °F 68.4 °F 56% 30.02 in 10.0 mi SSE 8.1 mph - N/A   Mostly Cloudy
7:15 PM 83.8 °F 87.3 °F 68.7 °F 60% 30.02 in 10.0 mi SSW 6.9 mph - N/A   Scattered Clouds
7:35 PM 84.2 °F 88.4 °F 69.8 °F 62% 30.02 in 10.0 mi South 4.6 mph - N/A   Clear
7:55 PM 82.9 °F 86.5 °F 69.1 °F 63% 30.00 in 10.0 mi SSE 4.6 mph - N/A   Clear
8:15 PM 82.4 °F 85.8 °F 69.3 °F 64% 30.02 in 10.0 mi SSE 3.5 mph - N/A   Clear
8:35 PM 81.7 °F 85.2 °F 69.8 °F 67% 30.03 in 10.0 mi Calm Calm - N/A   Scattered Clouds
8:55 PM 81.0 °F 84.4 °F 70.0 °F 69% 30.03 in 10.0 mi Calm Calm - N/A Thunderstorm Scattered Clouds
9:15 PM 80.2 °F 83.3 °F 69.8 °F 70% 30.03 in 10.0 mi SSE 3.5 mph - N/A Thunderstorm Mostly Cloudy
9:35 PM 79.9 °F - 69.4 °F 70% 30.03 in 10.0 mi SSE 3.5 mph - N/A   Mostly Cloudy
9:55 PM 79.7 °F - 69.3 °F 70% 30.02 in 10.0 mi SSE 4.6 mph - N/A   Scattered Clouds
10:15 PM 78.3 °F - 69.1 °F 73% 30.01 in 10.0 mi SSE 6.9 mph - N/A   Scattered Clouds
10:35 PM 77.7 °F - 67.6 °F 71% 30.01 in 10.0 mi SE 4.6 mph - N/A   Clear
10:55 PM 77.0 °F - 67.1 °F 71% 30.00 in 10.0 mi SE 5.8 mph - N/A   Clear
11:15 PM 76.6 °F - 67.8 °F 74% 30.00 in 10.0 mi SSE 6.9 mph - N/A   Scattered Clouds
11:35 PM 76.1 °F - 68.0 °F 76% 30.00 in 10.0 mi SSE 6.9 mph - N/A   Clear
11:55 PM 75.6 °F - 66.9 °F 74% 29.99 in 10.0 mi SSE 4.6 mph - N/A   Clear